Regional Weather Roundup
Issued by NWS

Home | Current Version | Previous Version | Graphics & Text | Print | Product List | Glossary On
Versions: 1 2 3 4 5 6 7 8 9 10 11 12 13 14 15 16 17 18 19 20 21 22 23 24 25 26 27 28 29 30 31 32 33 34 35 36 37 38 39 40 41 42 43 44 45 46 47 48 49 50
000
ASUS45 KBOI 262310
RWRID
WEATHER ROUNDUP FOR IDAHO
NATIONAL WEATHER SERVICE BOISE ID
500 PM MDT THU MAR 26 2015

NOTE: "FAIR" INDICATES FEW OR NO CLOUDS BELOW 12000 FEET
WITH NO SIGNIFICANT WEATHER AND/OR OBSTRUCTIONS TO VISIBILITY

IDZ012-014-270000-
SOUTHWEST IDAHO


CITY           SKY/WX    TMP DP  RH WIND       PRES   REMARKS
BOISE          SUNNY     64  37  36 N7        30.30F
CALDWELL       SUNNY     64  39  39 N7        30.31F
$$

IDZ016-017-270000-
SOUTHCENTRAL IDAHO


CITY           SKY/WX    TMP DP  RH WIND       PRES   REMARKS
BURLEY         SUNNY     61  34  36 W12       30.30F
JEROME         SUNNY     59  33  37 W10       30.32F
TWIN FALLS     SUNNY     63  36  36 NW8       30.32F
$$

IDZ019>023-270000-
SOUTHEAST IDAHO


CITY           SKY/WX    TMP DP  RH WIND       PRES   REMARKS
IDAHO FALLS    MOSUNNY   59  32  36 SW13G21   30.31F
POCATELLO      MOSUNNY   60  32  34 W15G22    30.32F
REXBURG        CLOUDY    56  30  37 SW15G21   30.30F
$$

IDZ006-010-011-018-031-032-270000-
CENTRAL IDAHO MOUNTAINS


CITY           SKY/WX    TMP DP  RH WIND       PRES   REMARKS
MCCALL         MOSUNNY   58  39  49 VRB6      30.32F
HAILEY         MOSUNNY   59  36  41 SE12G18   30.31F
STANLEY          N/A     59  34  39 NW6       30.35F
SALMON         CLOUDY   N/A N/A N/A N7        30.27F
CHALLIS        PTSUNNY   64  34  32 NE7       30.28F
$$

IDZ002-004-006-007-026-270000-
NORTHERN IDAHO


CITY           SKY/WX    TMP DP  RH WIND       PRES   REMARKS
LEWISTON       MOSUNNY   68  47  46 NE8       30.23F
LOWELL           N/A     64  49  57 N3        30.26F
COEUR D`ALENE  CLOUDY    61  46  59 CALM      30.26F
MULLAN PASS    MOSUNNY   43  39  86 VRB6      30.31F
$$



USA.gov is the U.S. government's official web portal to all federal, state and local government web resources and services.